Weather History for KMVN - December, 2011

Change the Weather History Date:

Saturday, December 17, 2011

  Actual Average Record
Temperature  
Mean Temperature 28 °F -  
Max Temperature 35 °F - - ()
Min Temperature 21 °F - - ()
Degree Days  
Heating Degree Days 37    
Moisture  
Dew Point 22 °F    
Average Humidity 90    
Maximum Humidity 100    
Minimum Humidity 75    
Precipitation  
Precipitation 0.00 in - - ()
Sea Level Pressure  
Sea Level Pressure 30.38 in    
Wind  
Wind Speed 1 mph (SSW)    
Max Wind Speed 14 mph    
Max Gust Speed -    
Visibility 6 miles    
Events      
T = Trace of Precipitation, MM = Missing Value Source: NWS Daily Summary

Daily Weather History Graph

Daily Weather History Graph

Search for Another Location

Airport or City:

Trip Planner

Search our weather history database for the weather conditions in past years. The results will help you decide how hot, cold, wet, or windy it might be!

Date:

Astronomy

Dec. 17, 2011 Rise Set
Actual Time 7:06 AM CST 4:36 PM CST
Civil Twilight 6:36 AM CST 5:06 PM CST
Nautical Twilight 6:03 AM CST 5:39 PM CST
Astronomical Twilight 5:31 AM CST 6:11 PM CST
Moon No Moon Rise 11:26 AM CST (12/17)
Length of Visible Light 10h 29m
Length of Day
9h 30m
Waning Gibbous, 53% of the Moon is Illuminated
Dec 17
Waning Gibbous
Dec 17
Last Quarter
Dec 24
New
Jan 1
First Quarter
Jan 9
Full

Hourly Weather History & Observations

Time (CST) Temp. Windchill Dew Point Humidity Pressure Visibility Wind Dir Wind Speed Gust Speed Precip Events Conditions
12:15 AM 24.8 °F - 21.2 °F 86% 30.39 in 5.0 mi Calm Calm - N/A   Clear
12:35 AM 24.8 °F - 21.2 °F 86% 30.37 in 5.0 mi Calm Calm - N/A   Clear
1:15 AM 24.8 °F - 21.2 °F 86% 30.37 in 5.0 mi Calm Calm - N/A   Clear
1:35 AM 24.8 °F - 23.0 °F 93% 30.37 in 5.0 mi Calm Calm - N/A   Clear
1:55 AM 24.8 °F - 21.2 °F 86% 30.39 in 6.0 mi Calm Calm - N/A   Clear
2:15 AM 23.0 °F - 19.4 °F 86% 30.39 in 7.0 mi Calm Calm - N/A   Clear
2:35 AM 23.0 °F - 21.2 °F 93% 30.39 in 6.0 mi Calm Calm - N/A   Clear
2:55 AM 23.0 °F - 21.2 °F 93% 30.39 in 6.0 mi Calm Calm - N/A   Clear
3:15 AM 24.8 °F - 21.2 °F 86% 30.39 in 5.0 mi Calm Calm - N/A   Clear
3:35 AM 24.8 °F - 23.0 °F 93% 30.41 in 7.0 mi Calm Calm - N/A   Clear
3:55 AM 23.0 °F - 19.4 °F 86% 30.39 in 8.0 mi Calm Calm - N/A   Clear
4:15 AM 24.8 °F - 21.2 °F 86% 30.39 in 7.0 mi Calm Calm - N/A   Clear
4:35 AM 23.0 °F - 21.2 °F 93% 30.39 in 7.0 mi Calm Calm - N/A   Clear
4:55 AM 21.2 °F - 19.4 °F 93% 30.38 in 5.0 mi Calm Calm - N/A   Clear
5:15 AM 23.0 °F - 21.2 °F 93% 30.38 in 5.0 mi Calm Calm - N/A   Clear
5:35 AM 21.2 °F - 19.4 °F 93% 30.38 in 6.0 mi Calm Calm - N/A   Clear
5:55 AM 21.2 °F - 19.4 °F 93% 30.39 in 7.0 mi Calm Calm - N/A   Mostly Cloudy
6:15 AM 21.2 °F - 19.4 °F 93% 30.39 in 7.0 mi Calm Calm - N/A   Partly Cloudy
6:55 AM 21.2 °F - 19.4 °F 93% 30.38 in 6.0 mi Calm Calm - N/A   Clear
7:15 AM 21.2 °F - 19.4 °F 93% 30.38 in 5.0 mi Calm Calm - N/A   Clear
7:35 AM 23.0 °F - 21.2 °F 93% 30.37 in 6.0 mi Calm Calm - N/A   Clear
7:55 AM 24.8 °F - 24.8 °F 100% 30.37 in 5.0 mi Calm Calm - N/A   Clear
8:15 AM 26.6 °F 22.6 °F 24.8 °F 93% 30.38 in 5.0 mi SW 3.5 mph - N/A   Partly Cloudy
8:55 AM 30.2 °F 24.3 °F 28.4 °F 93% 30.38 in 4.0 mi SSW 5.8 mph - N/A   Clear
9:15 AM 30.2 °F 22.6 °F 28.4 °F 93% 30.37 in 5.0 mi SSW 8.1 mph - N/A   Clear
9:35 AM 33.8 °F 24.3 °F 28.4 °F 81% 30.38 in 9.0 mi SSW 13.8 mph - N/A   Clear
9:55 AM 35.6 °F 27.5 °F 30.2 °F 81% 30.37 in 10.0 mi SSW 11.5 mph - N/A   Clear
10:15 AM 35.6 °F 27.5 °F 28.4 °F 75% 30.36 in 10.0 mi SSW 11.5 mph - N/A   Clear